Newport, RI

8:35 PM EDT on June 27, 2017 (GMT -0400)
Newport State

Weather History for KUUU - October, 2012

Change the Weather History Date:

Tuesday, October 23, 2012

  Actual Average Record
Temperature  
Mean Temperature 55 °F -  
Max Temperature 64 °F 61 °F 76 °F (1968)
Min Temperature 48 °F 45 °F 29 °F (1980)
Degree Days  
Heating Degree Days 10    
Growing Degree Days 5 (Base 50)    
Moisture  
Dew Point 45 °F    
Average Humidity 69    
Maximum Humidity 90    
Minimum Humidity 50    
Precipitation  
Precipitation 0.01 in - - ()
Sea Level Pressure  
Sea Level Pressure 30.07 in    
Wind  
Wind Speed 4 mph (WNW)    
Max Wind Speed 8 mph    
Max Gust Speed -    
Visibility 10 miles    
Events Rain    
Averages and records for this station are not official NWS values.
T = Trace of Precipitation, MM = Missing Value Source: NWS Daily Summary

Daily Weather History Graph

Daily Weather History Graph

Search for Another Location

Airport or City:

Trip Planner

Search our weather history database for the weather conditions in past years. The results will help you decide how hot, cold, wet, or windy it might be!

Date:

Astronomy

Oct. 23, 2012 Rise Set
Actual Time 7:06 AM EDT 5:51 PM EDT
Civil Twilight 6:38 AM EDT 6:19 PM EDT
Nautical Twilight 6:06 AM EDT 6:51 PM EDT
Astronomical Twilight 5:33 AM EDT 7:24 PM EDT
Moon 2:37 PM EDT (10/23) 12:51 AM EDT (10/23)
Length of Visible Light 11h 41m
Length of Day
10h 44m
Waxing Gibbous, 66% of the Moon is Illuminated
Oct 23
Waxing Gibbous
Oct 29
Full
Nov 6
Last Quarter
Nov 13
New
Nov 20
First Quarter

Hourly Weather History & Observations

Time (EDT) Temp. Dew Point Humidity Pressure Visibility Wind Dir Wind Speed Gust Speed Precip Events Conditions
12:53 AM 54.0 °F 44.1 °F 69% 30.02 in 10.0 mi NW 4.6 mph - N/A   Clear
1:53 AM 52.0 °F 44.1 °F 74% 30.03 in 10.0 mi NW 5.8 mph - N/A   Clear
2:53 AM 51.1 °F 43.0 °F 74% 30.03 in 10.0 mi NNW 5.8 mph - N/A   Clear
3:53 AM 51.1 °F 42.1 °F 71% 30.02 in 10.0 mi NNW 4.6 mph - N/A   Clear
4:53 AM 52.0 °F 42.1 °F 69% 30.04 in 10.0 mi WNW 5.8 mph - N/A   Clear
5:53 AM 50.0 °F 42.1 °F 74% 30.05 in 10.0 mi North 3.5 mph - N/A   Clear
6:53 AM 48.0 °F 41.0 °F 77% 30.06 in 10.0 mi Calm Calm - N/A   Clear
7:53 AM 50.0 °F 42.1 °F 74% 30.09 in 10.0 mi Calm Calm - N/A   Clear
8:53 AM 54.0 °F 43.0 °F 66% 30.10 in 10.0 mi Calm Calm - N/A   Clear
9:53 AM 57.0 °F 43.0 °F 59% 30.11 in 10.0 mi NW 5.8 mph - N/A   Clear
11:53 AM 62.1 °F 43.0 °F 50% 30.09 in 10.0 mi NNW 6.9 mph - N/A   Clear
1:53 PM 61.0 °F 44.1 °F 54% 30.06 in 10.0 mi South 8.1 mph - N/A   Partly Cloudy
2:53 PM 59.0 °F 46.9 °F 64% 30.06 in 10.0 mi SSW 5.8 mph - N/A   Overcast
3:53 PM 59.0 °F 45.0 °F 60% 30.06 in 10.0 mi SSW 6.9 mph - N/A   Overcast
4:53 PM 59.0 °F 46.9 °F 64% 30.05 in 10.0 mi Variable 3.5 mph - N/A   Mostly Cloudy
5:53 PM 59.0 °F 48.0 °F 67% 30.06 in 10.0 mi Calm Calm - N/A   Overcast
6:53 PM 59.0 °F 48.0 °F 67% 30.06 in 10.0 mi Calm Calm - N/A   Overcast
7:53 PM 59.0 °F 46.9 °F 64% 30.07 in 10.0 mi West 3.5 mph - N/A   Overcast
8:53 PM 59.0 °F 46.9 °F 64% 30.08 in 10.0 mi Calm Calm - N/A   Overcast
9:53 PM 55.9 °F 48.9 °F 77% 30.09 in 8.0 mi West 3.5 mph - 0.00 in Rain Light Rain
10:53 PM 54.0 °F 51.1 °F 90% 30.10 in 8.0 mi Calm Calm - 0.01 in Rain Light Rain
11:53 PM 54.0 °F 51.1 °F 90% 30.12 in 10.0 mi WNW 3.5 mph - 0.00 in Rain Light Rain